Regional Weather Roundup
Issued by NWS

Home | Current Version | Previous Version | Graphics & Text | Print | Product List | Glossary On
Versions: 1 2 3 4 5 6 7 8 9 10 11 12 13 14 15 16 17 18 19 20 21 22 23 24 25 26 27 28 29 30 31 32 33 34 35 36 37 38 39 40 41 42 43 44 45 46 47 48 49 50
000
ASUS43 KMPX 240401
RWRMN
WEATHER ROUNDUP FOR MINNESOTA
NATIONAL WEATHER SERVICE TWIN CITIES/CHANHASSEN MN
1100 PM CDT SUN APR 23 2017


NOTE: "FAIR" INDICATES FEW OR NO CLOUDS BELOW 12,000 FEET WITH NO
SIGNIFICANT WEATHER AND/OR OBSTRUCTIONS TO VISIBILITY. N/A MEANS
CURRENT SKY AND/OR WEATHER CONDITIONS ARE NOT AVAILABLE.

MNZ060>063-068>070-240500-
   Twin Cities Metro

CITY           SKY/WX    TMP DP  RH WIND       PRES   REMARKS
TWIN CITIES    MOCLDY    54  41  61 NE5       29.89F
ST PAUL        MOCLDY    53  41  63 NE7       29.90F
CRYSTAL        CLOUDY    47  36  65 NE8       29.90F
BLAINE         CLOUDY    48  39  71 NE6       29.91F
LAKEVILLE      PTCLDY    57  34  41 S7        29.89S
EDEN PRAIRIE   MOCLDY    54  41  61 NE9       29.87F
SOUTH ST PAUL  CLOUDY    55  41  59 N5        29.89S
LAKE ELMO      FAIR      50  41  71 NE8       29.92S
$$
MNZ001>005-007-008-013>017-022>024-027-028-240500-
   Northwest Minnesota

CITY           SKY/WX    TMP DP  RH WIND       PRES   REMARKS
BEMIDJI        LGT RAIN  32  30  92 E13G21    29.97F WCI  22
HALLOCK        MOCLDY    36  16  44 E12       30.00F
ROSEAU         CLOUDY    36  19  51 E8        30.03S
WARROAD        CLOUDY    36  21  55 E17G24    30.04F
THIEF RVR FALL MIX PCPN  31  29  92 E18       29.97F WCI  19
CROOKSTON      CLOUDY    34  30  86 E15G22    29.95F WCI  24
FOSSTON        CLOUDY    30  27  86 E15G25    29.94F WCI  19
DETROIT LAKES  CLOUDY    36  32  87 E13G25    29.89F
MOORHEAD       CLOUDY    37  32  81 E14G20    29.87F
PARK RAPIDS    CLOUDY    36  29  75 E9G18     29.93F
MAHNOMEN       CLOUDY    34  30  85 E22       29.90F WCI  22
$$
MNZ006-009>011-018-025>026-240500-
   North Central Minnesota

CITY           SKY/WX    TMP DP  RH WIND       PRES   REMARKS
BAUDETTE       CLOUDY    33  21  61 SE6       30.03F WCI  28
FLAG ISLAND    CLOUDY    36  14  41 E7        30.05F
INTL FALLS     CLOUDY    33  25  72 SE5       30.07F WCI  29
WASKISH        LGT SNOW N/A N/A N/A E13       30.02F
BIG FORK       FLURRIES  34  28  80 E8        30.04F WCI  27
LONGVILLE      CLOUDY    34  30  86 E7        29.98F WCI  28
GRAND RAPIDS   CLOUDY    33  28  81 E7        30.04F WCI  27
CRANE LAKE     CLOUDY    34  21  60 CALM      30.11S
ORR            MIX PCPN  32  27  80 MISG      30.05S
COOK           FLURRIES  32  30  93 E3        30.07F
WALKER         CLOUDY    34  30  85 E15       29.97F WCI  24
$$
MNZ012-019>021-037-240500-
   Northeast Minnesota

CITY           SKY/WX    TMP DP  RH WIND       PRES   REMARKS
DULUTH         CLOUDY    32  27  81 E17G24    30.03F WCI  21
ELY            FLURRIES  30  28  93 E3        30.09R
HIBBING        MIX PCPN  31  29  92 E8        30.05S WCI  23
EVELETH        MIX PCPN  32  27  80 E6        30.07R WCI  27
DULUTH HARBOR  CLOUDY    37  32  81 NE23G29   30.08F
TWO HARBORS    PTCLDY    34  28  80 NE10G18   30.07F WCI  26
SILVER BAY     CLOUDY    32  28  86 NE9       30.09F WCI  24
GRAND MARAIS     N/A     34  25  69 E13G20    30.16S WCI  25
G MARAIS ARPRT CLOUDY    27  18  69 E6        30.10S WCI  20
$$
MNZ029>031-032-039>041-046>048-054>057-064-240500-
   West Central Minnesota

CITY           SKY/WX    TMP DP  RH WIND       PRES   REMARKS
FERGUS FALLS   PTCLDY    39  34  81 E14G30    29.82F
WHEATON        CLOUDY    45  36  70 E17       29.81S
MORRIS         CLOUDY    45  37  76 E30       29.79F
ALEXANDRIA     PTCLDY    39  34  82 E21G28    29.87F
ELBOW LAKE     FAIR      43  37  79 SE21G33   29.81F
WADENA         PTCLDY    36  30  80 E14G21    29.90F
GLENWOOD       CLOUDY    39  36  87 E22G28    29.86F
BENSON         CLOUDY    48  36  61 SE20G28   29.82F
ORTONVILLE     PTCLDY    48  39  71 E21       29.76S
MADISON        MOCLDY    57  36  44 SE10      29.75F
WILLMAR        FAIR      48  39  71 E18       29.84F
$$
MNZ033>034-036-042>043-049>051-058-059-240500-
   Central Minnesota

CITY           SKY/WX    TMP DP  RH WIND       PRES   REMARKS
ST CLOUD       CLEAR     39  34  82 NE10      29.92F
SAUK CENTRE    FAIR      38  33  82 E15G22    29.89S
PAYNESVILLE    PTCLDY    41  35  79 E12G18    29.88F
AITKIN         PTCLDY    34  23  64 NE10G16   29.98S WCI  26
PINE RIVER     CLOUDY    34  27  75 E12G17    30.00F WCI  25
BRAINERD       PTCLDY    34  26  72 E8        29.96F WCI  27
STAPLES        MOCLDY    36  28  75 E9        29.92F
LONG PRAIRIE   FAIR      36  32  87 NE15G21   29.90F
LITTLE FALLS   PTCLDY    36  30  80 E8        29.94S
BUFFALO        CLOUDY    44  35  71 NE10G16   29.91S
MAPLE LAKE     MOCLDY    44  37  78 NE12      29.91F
HUTCHINSON     PTCLDY    51  42  71 NE15      29.86F
$$
MNZ037-044-045-052-053-240500-
   East Central Minnesota

CITY           SKY/WX    TMP DP  RH WIND       PRES   REMARKS
PRINCETON      PTCLDY    39  32  75 NE12G17   29.94F
MORA           CLOUDY    36  32  87 E8        29.99S
CAMBRIDGE      PTCLDY    39  30  70 NE8       29.93F
RUSH CITY      PTCLDY    37  31  79 NE9       29.96S
MOOSE LAKE     CLOUDY    34  23  64 E10G20    29.99S WCI  26
HINCKLEY       FAIR      36  30  80 E13       29.98F
CLOQUET        CLOUDY    32  25  74 E15G21    30.01F WCI  22
MCGREGOR       CLOUDY    32  27  80 E9G16     30.00F WCI  24
$$
MNZ071>073-080-081-089-090-097-098-240500-
   Southwest Minnesota

CITY           SKY/WX    TMP DP  RH WIND       PRES   REMARKS
MONTEVIDEO     PTCLDY    54  36  50 SE10      29.78F
GRANITE FALLS  CLOUDY    58  35  40 SE13      29.81S
CANBY          PTCLDY    55  34  45 E8        29.76F
MARSHALL       PTCLDY    58  32  37 S13       29.78F
REDWOOD FALLS  PTCLDY    57  31  37 S12       29.81F
OLIVIA         CLOUDY    55  34  44 SE8       29.81F
PIPESTONE      CLOUDY    55  27  33 S15       29.79F
WINDOM         CLOUDY    57  30  35 S9        29.85F
WORTHINGTON    CLOUDY    57  29  34 S15       29.85S
JACKSON        PTCLDY    55  30  38 S10       29.87F
TRACY          CLOUDY    59  33  36 S14G20    29.81S
SLAYTON        CLOUDY    55  32  42 S15       29.83F
$$
MNZ065>067-074>077-082>085-091>093-240500-
   South Central Minnesota

CITY           SKY/WX    TMP DP  RH WIND       PRES   REMARKS
MANKATO        CLOUDY    58  30  34 S9        29.88F
NEW ULM        PTCLDY    57  30  35 S10       29.85F
ST JAMES       CLEAR     57  30  35 S15       29.86F
FAIRMONT       CLEAR     52  34  50 S12       29.89F
GLENCOE        PTCLDY    54  43  65 NE3       29.85F
FARIBAULT      PTCLDY    55  34  44 S6        29.90F
OWATONNA       CLEAR     57  30  35 S9        29.91S
WASECA         CLEAR     55  32  41 S9        29.91F
ALBERT LEA     CLEAR     59  27  29 S8        29.92S
$$
MNZ078>079-086>088-094>096-240500-
   Southeast Minnesota

CITY           SKY/WX    TMP DP  RH WIND       PRES   REMARKS
ROCHESTER      CLEAR     53  35  50 S7        29.94S
RED WING       PTCLDY    61  27  27 S7        29.89S
STANTON        CLEAR     58  32  37 S8        29.89S
DODGE CENTER   CLEAR     54  36  50 S9        29.93S
WINONA         CLEAR     54  41  62 CALM      29.94S
AUSTIN         CLEAR     52  36  54 S8        29.93S
PRESTON        PTCLDY    55  32  42 S6        29.95S
$$
ABBREVIATIONS USED IN REMARKS
   TC - TEMPERATURES IN CELSIUS
  WCI - WIND CHILL INDEX
   HX - HEAT INDEX
  VSB - VISIBILITY
$$



USA.gov is the U.S. government's official web portal to all federal, state and local government web resources and services.